This is the latest recevied weather packets stored in our database for station/object KN6ETB-1. If no packets are shown the sender has not sent any weather packets the latest 10 day(s).
| Time | Temp. | Humidity | Pressure | Rain* | Wind** | Luminosity | Snow |
|---|---|---|---|---|---|---|---|
| 1777750107 | 16.67° C | 73% | 1010.1 hPa | 0 mm | - | 654 W/m² | - |
| 1777749804 | 17.22° C | 72% | 1010 hPa | 0 mm | - | 517 W/m² | - |
| 1777749501 | 17.22° C | 73% | 1009.9 hPa | 0 mm | - | 617 W/m² | - |
| 1777749199 | 17.22° C | 73% | 1010 hPa | 0 mm | - | 696 W/m² | - |
| 1777748896 | 16.67° C | 73% | 1009.9 hPa | 0 mm | - | 492 W/m² | - |
| 1777748593 | 16.67° C | 74% | 1009.8 hPa | 0 mm | - | 474 W/m² | - |
| 1777748289 | 16.11° C | 75% | 1009.7 hPa | 0 mm | - | 484 W/m² | - |
| 1777747985 | 16.11° C | 75% | 1009.7 hPa | 0 mm | - | 411 W/m² | - |
| 1777747682 | 16.11° C | 76% | 1010 hPa | 0 mm | - | 597 W/m² | - |
| 1777747377 | 15.56° C | 78% | 1010.1 hPa | 0 mm | - | 443 W/m² | - |
| 1777747074 | 15.56° C | 78% | 1010.1 hPa | 0 mm | - | 298 W/m² | - |
| 1777746770 | 15.56° C | 78% | 1010 hPa | 0 mm | - | 326 W/m² | - |
| 1777746466 | 16.11° C | 77% | 1010 hPa | 0 mm | - | 337 W/m² | - |
| 1777746161 | 16.11° C | 76% | 1009.9 hPa | 0 mm | - | 462 W/m² | - |
| 1777745858 | 16.67° C | 75% | 1009.7 hPa | 0 mm | - | 498 W/m² | - |
| 1777745558 | 16.67° C | 74% | 1009.7 hPa | 0 mm | - | 576 W/m² | - |
| 1777745254 | 16.11° C | 76% | 1009.7 hPa | 0 mm | - | 710 W/m² | - |
| 1777744952 | 15.56° C | 78% | 1009.7 hPa | 0 mm | - | 693 W/m² | - |
| 1777744651 | 15° C | 81% | 1009.7 hPa | 0 mm | - | 779 W/m² | - |
| 1777744346 | 14.44° C | 82% | 1009.9 hPa | 0 mm | - | 335 W/m² | - |
| 1777744044 | 14.44° C | 81% | 1010 hPa | 0 mm | - | 216 W/m² | - |
| 1777743741 | 14.44° C | 82% | 1009.7 hPa | 0 mm | - | 189 W/m² | - |
| 1777743438 | 14.44° C | 82% | 1009.8 hPa | 0 mm | - | 180 W/m² | - |
| 1777743135 | 14.44° C | 82% | 1010 hPa | 0 mm | - | 190 W/m² | - |
| 1777742834 | 14.44° C | 82% | 1009.7 hPa | 0 mm | - | 483 W/m² | - |
* Rain latest hour (hover to see other rain measurements)
** Current wind speed in m/s (hover to see current wind gust speed)